Regional Weather Roundup
Issued by NWS

Home | Current Version | Previous Version | Text Only | Print | Product List | Glossary Off
Versions: 1 2 3 4 5 6 7 8 9 10 11 12 13 14 15 16 17 18 19 20 21 22 23 24 25 26 27 28 29 30 31 32 33 34 35 36 37 38 39 40 41 42 43 44 45 46 47 48 49 50

585
ASUS44 KLIX 040901
RWRLA
LOUISIANA WEATHER ROUNDUP
NATIONAL WEATHER SERVICE NEW ORLEANS LA
300 AM CST WED MAR 04 2015

NOTE: "FAIR" INDICATES FEW OR NO CLOUDS BELOW 12,000 FEET WITH NO
      SIGNIFICANT WEATHER AND/OR OBSTRUCTIONS TO VISIBILITY.
      SKY/WX - SKY CONDITION AND SIGNIFICANT WEATHER.
      TMP - AIR TEMPERATURE.    DP   - DEWPOINT TEMPERATURE.
      RH  - RELATIVE HUMIDITY.  PRES - PRESSURE.
      HX  - HEAT INDEX.         WCI  - WIND CHILL INDEX.

*  THESE STATIONS ARE NOT NWS OR FAA STATIONS AND ARE NOT UNDER
   NWS QUALITY CONTROL.

LAZ040-048-061>063-065-066-069-041000-
SOUTHEAST LOUISIANA

CITY           SKY/WX    TMP DP  RH WIND       PRES   REMARKS
N.O. AUDUBON   NOT AVBL
N.O. INTL ARPT MOCLDY    68  65  90 S7        29.96F
N.O. LAKEFRONT CLEAR     67  64  90 SE5       29.97F
SLIDELL        MOCLDY    67  67 100 S7        29.96F
BATON ROUGE    CLOUDY    69  68  96 S7        29.96S
BOOTHVILLE     FOG       63  62  97 SE6       29.99F VSB 1/4
BELLE CHASSE   CLEAR     66  63  90 SE6       29.96F
BOGALUSA*        N/A     70  66  86 S7        29.99F
GALLIANO*      CLOUDY    66  65  96 CALM      29.97S
NEW ROADS*     NOT AVBL
GONZALES*      NOT AVBL
HAMMOND*       NOT AVBL
HOUMA*         FOG       64  64 100 E3        29.96F VSB 1/4
PORT FOURCHON* PTSUNNY   70  68  94 S5        30.00S

$$

LAZ041-044-053-054-041000-
SOUTHWEST LOUISIANA

CITY           SKY/WX    TMP DP  RH WIND       PRES   REMARKS
LAKE CHARLES   CLOUDY    68  67  96 S5        29.92F
LAFAYETTE      MOCLDY    67  66  97 S5        29.94F
PATTERSON      CLEAR     68  66  94 S8        29.95S
SALT POINT       N/A     64  64 100 SE5       29.94S
NEW IBERIA     FOG       66  65  96 SE3       29.95F VSB 1/4
CHENAULT AIRPK CLOUDY    67  67  98 S3        29.92F

$$

LAZ027-028-041000-
CENTRAL LOUISIANA

CITY           SKY/WX    TMP DP  RH WIND       PRES   REMARKS
FORT POLK      CLOUDY    68  67  94 S12       29.89F
ALEXANDRIA INT CLOUDY    64  64 100 SE5       29.90F FOG
ALEXANDRIA     CLOUDY    69  66  90 S6        29.92F

$$

LAZ001-002-041000-
NORTHWEST LOUISIANA

CITY           SKY/WX    TMP DP  RH WIND       PRES   REMARKS
SHREVEPORT     CLOUDY    64  63  96 S5        29.87S
BARKSDALE AFB  MOCLDY    63  63 100 S7        29.87S
DTN SHREVEPORT CLOUDY    64  61  90 SE6       29.87S

$$

LAZ014-016-041000-
NORTHEAST LOUISIANA

CITY           SKY/WX    TMP DP  RH WIND       PRES   REMARKS
MONROE         CLOUDY    66  65  96 S6        29.91F
TALLULAH       CLOUDY    66  64  93 CALM      29.94F FOG

$$




USA.gov is the U.S. government's official web portal to all federal, state and local government web resources and services.